Weather History for Fort Campbell, KY

Change the Weather History Date:

Thursday, August 1, 2013

  Actual Average Record
Temperature  
Mean Temperature 74 °F -  
Max Temperature 83 °F 86 °F 99 °F (2012)
Min Temperature 66 °F 67 °F 57 °F (1996)
Cooling Degree Days 9    
Growing Degree Days 24 (Base 50)    
Moisture  
Dew Point 69 °F    
Average Humidity 92    
Maximum Humidity 100    
Minimum Humidity 56    
Precipitation  
Precipitation 0.00 in - - ()
Sea Level Pressure  
Sea Level Pressure 30.01 in    
Wind  
Wind Speed 3 mph (NNW)    
Max Wind Speed 10 mph    
Max Gust Speed -    
Visibility 7 miles    
Events      
Averages and records for this station are not official NWS values.
T = Trace of Precipitation, MM = Missing Value Source: NWS Daily Summary

Daily Weather History Graph

Daily Weather History Graph

Search for Another Location

Airport:

Trip Planner

Search our weather history database for the weather conditions in past years. The results will help you decide how hot, cold, wet, or windy it might be!

Date:

Astronomy

Aug. 01, 2013 Rise Set
Actual Time 5:56 AM CDT 7:55 PM CDT
Civil Twilight 5:27 AM CDT 8:24 PM CDT
Nautical Twilight 4:52 AM CDT 8:59 PM CDT
Astronomical Twilight 4:15 AM CDT 9:36 PM CDT
Moon 1:32 AM CDT (8/1) 4:03 PM CDT (8/1)
Length of Visible Light 14h 56m
Length of Day
13h 59m
Waning Crescent, 23% of the Moon is Illuminated
Aug 1
Waning Crescent
Aug 6
New
Aug 14
First Quarter
Aug 20
Full
Aug 28
Last Quarter

Hourly Weather History & Observations

Time (CDT) Temp. Heat Index Dew Point Humidity Pressure Visibility Wind Dir Wind Speed Gust Speed Precip Events Conditions
12:07 AM 69.8 °F - 69.8 °F 100% 30.01 in 3.0 mi NE 2.3 mph - N/A   Clear
12:08 AM 69.8 °F - 69.8 °F 100% 30.01 in 3.0 mi NE 2.3 mph - N/A   Clear
12:55 AM 69.8 °F - 69.8 °F 100% 30.00 in 10.0 mi Calm Calm - N/A   Light Drizzle
12:58 AM 70.5 °F - 70.5 °F 100% 29.99 in 10.0 mi Calm Calm - N/A   Light Drizzle
1:04 AM 69.8 °F - 69.8 °F 100% 30.00 in 10.0 mi Calm Calm - N/A   Mostly Cloudy
1:58 AM 70.2 °F - 70.2 °F 100% 29.98 in 8.0 mi NNW 1.2 mph - 0.00 in   Clear
2:08 AM 69.8 °F - 69.8 °F 100% 29.99 in 2.5 mi WNW 2.3 mph - N/A   Clear
2:16 AM 69.8 °F - 69.8 °F 100% 29.98 in 3.0 mi WNW 2.3 mph - N/A   Clear
2:39 AM 68.0 °F - 68.0 °F 100% 29.98 in 2.5 mi North 2.3 mph - N/A   Clear
2:40 AM 68.0 °F - 68.0 °F 100% 29.97 in 2.0 mi North 2.3 mph - N/A   Clear
2:41 AM 66.2 °F - 66.2 °F 100% 29.98 in 1.5 mi North 2.3 mph - N/A   Clear
2:42 AM 66.2 °F - 66.2 °F 100% 29.98 in 1.2 mi North 2.3 mph - N/A   Clear
2:43 AM 66.2 °F - 66.2 °F 100% 29.98 in 1.0 mi North 2.3 mph - N/A   Clear
2:44 AM 66.2 °F - 66.2 °F 100% 29.98 in 0.8 mi NNW 2.3 mph - N/A   Clear
2:51 AM 66.2 °F - 66.2 °F 100% 29.98 in 1.0 mi WSW 2.3 mph - N/A   Clear
2:52 AM 66.2 °F - 66.2 °F 100% 29.98 in 1.2 mi West 2.3 mph - N/A   Clear
2:53 AM 66.2 °F - 66.2 °F 100% 29.98 in 1.5 mi West 2.3 mph - N/A   Clear
2:55 AM 66.2 °F - 66.2 °F 100% 29.97 in 2.0 mi Variable 1.2 mph - N/A   Clear
2:57 AM 66.2 °F - 66.2 °F 100% 29.97 in 3.0 mi South 2.3 mph - N/A   Clear
2:58 AM 66.9 °F - 66.9 °F 100% 29.96 in 3.0 mi South 2.3 mph - N/A   Clear
3:58 AM 69.3 °F - 69.3 °F 100% 29.97 in 7.0 mi NW 4.6 mph - N/A   Partly Cloudy
4:39 AM 68.0 °F - 68.0 °F 100% 29.99 in 7.0 mi NNW 2.3 mph - N/A   Mostly Cloudy
4:58 AM 68.9 °F - 68.9 °F 100% 29.99 in 8.0 mi WNW 2.3 mph - N/A   Overcast
5:45 AM 69.8 °F - 69.8 °F 100% 30.01 in 10.0 mi NNW 2.3 mph - N/A   Mostly Cloudy
5:58 AM 69.6 °F - 69.6 °F 100% 30.01 in 8.0 mi WNW 3.5 mph - N/A   Scattered Clouds
6:58 AM 69.6 °F - 69.6 °F 100% 30.01 in 8.0 mi WNW 3.5 mph - N/A   Clear
7:15 AM 69.8 °F - 69.8 °F 100% 30.02 in 9.0 mi WNW 4.6 mph - N/A   Mostly Cloudy
7:16 AM 69.8 °F - 69.8 °F 100% 30.03 in 9.0 mi WNW 4.6 mph - N/A   Mostly Cloudy
7:20 AM 69.8 °F - 69.8 °F 100% 30.02 in 9.0 mi WNW 4.6 mph - N/A   Mostly Cloudy
7:30 AM 71.6 °F - 71.6 °F 100% 30.03 in 9.0 mi Variable 4.6 mph - N/A   Overcast
7:58 AM 70.5 °F - 70.5 °F 100% 30.02 in 7.0 mi NNW 4.6 mph - N/A   Overcast
8:03 AM 69.8 °F - 69.8 °F 100% 30.03 in 7.0 mi NNW 5.8 mph - N/A   Overcast
8:32 AM 69.8 °F - 69.8 °F 100% 30.04 in 8.0 mi NNW 5.8 mph - N/A   Overcast
8:47 AM 69.8 °F - 69.8 °F 100% 30.04 in 8.0 mi NNW 5.8 mph - N/A   Overcast
8:58 AM 71.1 °F - 71.1 °F 100% 30.04 in 8.0 mi North 5.8 mph - N/A   Overcast
9:11 AM 71.6 °F - 71.6 °F 100% 30.05 in 9.0 mi NNW 6.9 mph - N/A   Overcast
9:22 AM 71.6 °F - 71.6 °F 100% 30.05 in 9.0 mi Variable 5.8 mph - N/A   Overcast
9:58 AM 71.8 °F - 71.8 °F 100% 30.06 in 8.0 mi NW 3.5 mph - N/A   Overcast
10:08 AM 73.4 °F - 71.6 °F 94% 30.06 in 10.0 mi NNW 5.8 mph - N/A   Overcast
10:24 AM 73.4 °F - 71.6 °F 94% 30.06 in 10.0 mi Variable 5.8 mph - N/A   Overcast
10:25 AM 73.4 °F - 73.4 °F 100% 30.06 in 10.0 mi NNW 6.9 mph - N/A   Overcast
10:35 AM 75.2 °F - 71.6 °F 89% 30.06 in 10.0 mi NNW 6.9 mph - N/A   Mostly Cloudy
10:36 AM 75.2 °F - 71.6 °F 89% 30.06 in 10.0 mi NNW 5.8 mph - N/A   Mostly Cloudy
10:40 AM 75.2 °F - 71.6 °F 89% 30.06 in 10.0 mi NNW 8.1 mph - N/A   Mostly Cloudy
10:49 AM 75.2 °F - 69.8 °F 83% 30.06 in 10.0 mi NNW 6.9 mph - N/A   Mostly Cloudy
10:58 AM 76.5 °F - 69.8 °F 80% 30.05 in 10.0 mi North 10.4 mph - N/A   Partly Cloudy
11:58 AM 79.0 °F - 67.1 °F 67% 30.05 in 10.0 mi North 8.1 mph - N/A   Scattered Clouds
12:58 PM 80.6 °F 82.8 °F 66.4 °F 62% 30.04 in 10.0 mi North 8.1 mph - N/A   Scattered Clouds
1:58 PM 81.5 °F 83.7 °F 66.6 °F 60% 30.03 in 10.0 mi NNE 8.1 mph - N/A   Partly Cloudy
2:58 PM 82.6 °F 84.9 °F 66.2 °F 58% 30.02 in 10.0 mi NNW 8.1 mph - N/A   Scattered Clouds
3:58 PM 82.9 °F 85.6 °F 67.3 °F 59% 30.00 in 10.0 mi NW 10.4 mph - N/A   Clear
4:58 PM 80.6 °F 82.4 °F 64.9 °F 59% 30.00 in 10.0 mi Variable 5.8 mph - N/A   Clear
5:58 PM 81.5 °F 83.1 °F 64.2 °F 56% 29.99 in 10.0 mi North 6.9 mph - N/A   Clear
6:58 PM 80.2 °F 82.2 °F 65.5 °F 61% 29.99 in 10.0 mi NNW 5.8 mph - N/A   Clear
7:58 PM 76.1 °F - 65.1 °F 69% 29.99 in 10.0 mi NNW 2.3 mph - N/A   Clear
8:58 PM 73.4 °F - 65.3 °F 76% 30.01 in 10.0 mi North 1.2 mph - N/A   Clear
9:58 PM 70.3 °F - 66.9 °F 89% 30.03 in 10.0 mi West 1.2 mph - N/A   Clear
10:58 PM 69.6 °F - 65.5 °F 87% 30.02 in 10.0 mi Calm Calm - N/A   Clear
11:58 PM 68.9 °F - 65.3 °F 88% 30.04 in 10.0 mi SW 2.3 mph - N/A   Clear